Regional Weather Roundup
Issued by NWS

Home | Current Version | Previous Version | Graphics & Text | Print | Product List | Glossary On
Versions: 1 2 3 4 5 6 7 8 9 10 11 12 13 14 15 16 17 18 19 20 21 22 23 24 25 26 27 28 29 30 31 32 33 34 35 36 37 38 39 40 41 42 43 44 45 46 47 48 49 50
397
ASUS43 KOAX 010310
RWRNE

WEATHER ROUNDUP FOR NEBRASKA
NATIONAL WEATHER SERVICE OMAHA NE
1000 PM CDT WED AUG 31 2016

NOTES: SATELLITE DATA IS BEING USED TO AUGMENT CLOUD COVER ABOVE
       12000 FEET.
       "FAIR" INDICATES FEW OR NO CLOUDS BELOW 12,000 FEET WITH NO
       SIGNIFICANT WEATHER AND/OR OBSTRUCTIONS TO VISIBILITY.

  * THESE STATIONS DO NOT REPORT WEATHER SUCH AS RAIN...SNOW OR FOG.

NEZ001>004-019>022-054>056-010400-
NEBRASKA PANHANDLE

CITY           SKY/WX    TMP DP  RH WIND       PRES   REMARKS
SCOTTSBLUFF    CLEAR     67  59  75 E8        30.22R
ALLIANCE       CLEAR     67  59  75 SE16      30.22R
CHADRON        CLEAR     71  55  56 SE10      30.18R
KIMBALL        CLEAR     64  60  87 SE10      30.28R
SIDNEY         CLEAR     64  59  83 SE10      30.27R
$$

NEZ057>060-069>072-079>082-010400-
SOUTHWEST NEBRASKA

CITY           SKY/WX    TMP DP  RH WIND       PRES   REMARKS
NORTH PLATTE   CLEAR     63  60  90 E5        30.23R
IMPERIAL       CLEAR     65  62  90 SE7       30.23R
LEXINGTON      CLEAR     69  61  75 E7        30.22R
MCCOOK         PTCLDY    66  62  87 SE5       30.21R
OGALLALA       CLEAR     66  62  87 CALM      30.24R
$$

NEZ005>010-023>029-035>040-094-010400-
NORTH CENTRAL NEBRASKA

CITY           SKY/WX    TMP DP  RH WIND       PRES   REMARKS
VALENTINE      CLEAR     72  55  55 SE14      30.20R
AINSWORTH      CLEAR     68  56  67 SE9       30.23R
BROKEN BOW     CLEAR     64  59  83 SE5       30.23R
O`NEILL        CLEAR     68  58  68 SE6       30.23R
ORD            CLEAR     64  58  80 CALM      30.21R
THEDFORD       CLEAR     66  57  73 SE5       30.25R
$$

NEZ041-046>049-061>064-073>077-083>087-010400-
SOUTH CENTRAL NEBRASKA

CITY           SKY/WX    TMP DP  RH WIND       PRES   REMARKS
GRAND ISLAND   CLEAR     63  59  87 E3        30.22R
AURORA         CLEAR     63  61  94 NE6       30.21R
HASTINGS       CLEAR     65  58  78 E5        30.21R
HEBRON         CLEAR     63  61  94 CALM      30.18R
HOLDREGE       CLEAR     64  57  79 E7        30.21S
KEARNEY *      CLEAR     63  57  82 E6        30.21R
YORK           CLEAR     63  59  88 NE5       30.21R
$$

NEZ011>018-030>034-042>045-010400-
NORTHEAST NEBRASKA

CITY           SKY/WX    TMP DP  RH WIND       PRES   REMARKS
NORFOLK        CLEAR     63  59  87 SE3       30.20R
ALBION         CLOUDY    65  58  79 CALM      30.22R
BLAIR          CLEAR     68  60  75 N3        30.19R
FREMONT        CLEAR     66  62  86 CALM      30.19R
TEKAMAH        CLEAR     64  61  90 N3        30.18R
WAYNE          CLOUDY    63  62  96 CALM      30.21R
$$

NEZ050>053-065>068-078-088>093-010400-
SOUTHEAST NEBRASKA

CITY           SKY/WX    TMP DP  RH WIND       PRES   REMARKS
LINCOLN        CLEAR     66  59  78 N3        30.19R
OMAHA EPPLEY   CLEAR     66  61  84 NW3       30.17R
BEATRICE       CLEAR     64  61  92 NE3       30.17R
FALLS CITY     CLEAR     69  63  81 N3        30.14R
NEBRASKA CITY  CLEAR     65  61  85 NE5       30.17R
PLATTSMOUTH    CLEAR     67  60  79 CALM      30.17S
$$

NEZ044-045-051>053-067-010400-
OMAHA AREA

CITY           SKY/WX    TMP DP  RH WIND       PRES   REMARKS
OMAHA EPPLEY   CLEAR     66  61  84 NW3       30.17R
BLAIR          CLEAR     68  60  75 N3        30.19R
FREMONT        CLEAR     66  62  86 CALM      30.19R
MILLARD        CLEAR    N/A N/A N/A CALM      30.18R
OFFUTT AFB     PTCLDY    63  63 100 NE3       30.16R
PLATTSMOUTH    CLEAR     67  60  79 CALM      30.17S
WAHOO          FAIR      64  61  91 N5        30.19R
$$




USA.gov is the U.S. government's official web portal to all federal, state and local government web resources and services.